Zurück zum Katalog

DELTA 1 DEB

LostUNKNOWN
NORAD 28669·DEBRIS·🇺🇸 United States

Gestartet Jul 4, 1968 von Vandenberg Space Force Base

Loading…

Nächste Überflüge (nächste 24 Stunden)

TLE

VeraltetSource: Space-Track

Epoche: Apr 18, 2017, 02:15 UTC

1 28669U 68055R   17108.09412590 +.00004934 +00000-0 +27642-2 0  9995
2 28669 120.5381 171.3982 1162155 167.8511 204.5139 12.43584938548811

Verfolge DELTA 1 DEB in Echtzeit mit AllMySat

Download on the App Store